Location: Doverdale
(52.2833°N, 2.2000°W)
Time: 01:48:13
(UTC+00:00)

Cosmos 1980 Rocket - Pass Details

Date: 07 March 2021
Orbit: 828 x 851 km, 71.0° (Epoch: 15 April)

Event Time Altitude Azimuth Distance (km) Brightness Sun altitude
Rises 21:23:54 0° 308° (NW) 3,423 6.5 -30.4°
Reaches altitude 10° 21:28:25 10° 341° (NNW) 2,490 5.3 -31.0°
Maximum altitude 21:30:16 11° 0° (N) 2,384 4.9 -31.2°
Drops below altitude 10° 21:32:08 10° 19° (NNE) 2,491 4.8 -31.4°
Enters shadow 21:34:03 - 36° (NE) 2,798 4.9 -31.7°
